[[{"header":{"parameterUnit":"m.s-1","parameterCategory":1,"la1":30.2991,"la2":30.254,"lo1":-89.0895,"lo2":-89.0444,"dy":0.0017,"dx":0.0017,"nx":28,"ny":28,"refTime":"2023-10-23T09:00:00:Z","depth":0,"parameterNumber":2,"parameterNumberName":"U-component_of_WINDS"},"data":[0,0,0,0,0,0,0,0,0,0,0,0,0,0,0,0,0,0,0,0,0,0,0,0,0,0,0,0,0,0,0,0,0,0,0,0,0,0,0,0,0,0,0,0,0,0,0,0,0,0,0,0,0,0,0,0,0,0,-7.1041,-7.1043,0,-7.1182,-7.1184,-7.1186,-7.1133,-7.113,-7.1126,-7.1123,-7.1266,-7.1273,-7.1279,0,0,0,0,0,0,0,0,0,0,0,0,0,-7.0727,-7.0733,-7.1041,-7.1043,-7.1045,-7.1182,-7.1184,-7.1186,-7.1133,-7.113,-7.1126,-7.1122,-7.1264,-7.1272,-7.128,0,0,0,0,0,0,0,0,0,0,0,0,0,-7.0865,-7.0735,-7.1041,-7.1035,-7.1036,-7.1182,-7.1184,-7.1186,-7.1134,-7.1129,-7.1125,-7.112,-7.1261,-7.1271,-7.1281,-7.144,0,0,-7.1312,-7.1316,0,0,0,0,0,0,0,0,-7.0858,-7.0877,-7.1034,-7.1036,-7.1037,-7.1135,-7.1125,-7.1271,-7.1136,-7.1097,-7.1123,-7.1118,-7.1226,-7.1239,-7.1276,-7.1447,-7.1453,-7.1313,-7.1319,-7.1324,-7.1326,0,0,0,0,0,0,0,-7.0848,-7.0871,-7.1097,-7.1037,-7.1038,-7.1026,-7.104,-7.1153,-7.1187,-7.11,-7.1096,-7.1114,-7.1226,-7.1266,-7.1279,-7.1455,-7.1313,-7.1322,-7.1328,-7.1332,-7.1765,-7.177,0,0,0,0,0,0,-7.0838,-7.0863,-7.1092,-7.1101,-7.0934,-7.1035,-7.1051,-7.1109,-7.1185,-7.1193,-7.1118,-7.1111,-7.1251,-7.1267,-7.1284,-7.1475,-7.1323,-7.1333,-7.1339,-7.176,-7.1766,-7.1772,0,0,0,0,0,0,-7.0831,-7.0859,-7.1087,-7.0981,-7.1009,-7.1046,-7.1111,-7.1114,-7.1154,-7.1199,-7.1205,-7.1153,-7.1248,-7.1269,-7.1402,-7.1479,-7.1338,-7.1347,-7.1754,-7.1762,-7.1769,-7.1859,0,0,0,0,0,0,-7.0823,-7.0857,-7.0917,-7.0983,-7.1015,-7.1203,-7.1115,-7.112,-7.1172,-7.1164,-7.1233,-7.124,-7.1246,-7.1387,-7.1412,-7.1491,-7.1355,-7.1747,-7.1757,-7.1767,-7.1849,-7.1869,-7.1886,0,0,0,0,0,-7.0812,-7.0936,-7.0921,-7.0949,-7.1091,-7.1207,-7.1226,-7.123,-7.1178,-7.1239,-7.1269,-7.1238,-7.1468,-7.1401,-7.1429,-7.1512,-7.1742,-7.1754,-7.1766,-7.1841,-7.1865,-7.1886,0,0,0,0,0,0,-7.0877,-7.0944,-7.0928,-7.1077,-7.1137,-7.1198,-7.1275,-7.1256,-7.1331,-7.132,-7.1323,-7.1339,-7.1476,-7.1508,-7.1432,-7.1671,-7.1597,-7.1615,-7.1644,-7.1668,-7.1686,-7.1674,-7.1363,0,0,0,0,0,-7.0909,-7.0998,-7.1052,-7.1179,-7.121,-7.1238,-7.1289,-7.1288,-7.1349,-7.1374,-7.1413,-7.1474,-7.156,-7.1616,-7.1698,-7.1855,-7.1869,-7.1926,-7.1945,-7.196,-7.1974,-7.2061,-7.2086,-7.1812,-7.1812,-7.1812,0,0,-7.0975,-7.1024,-7.1079,-7.1193,-7.1239,-7.1331,-7.1259,-7.1359,-7.1427,-7.1389,-7.1516,-7.1548,-7.1616,-7.1762,-7.1829,-7.1793,-7.2054,-7.1975,-7.1987,-7.1993,-7.2076,-7.2102,-7.2125,-7.1821,-7.1819,-7.1818,0,0,-7.1143,-7.1189,-7.1299,-7.1348,-7.142,-7.1438,-7.1465,-7.1531,-7.155,-7.1679,-7.1653,-7.1734,-7.1882,-7.1932,-7.1977,-7.2169,-7.2142,-7.2195,-7.229,-7.2375,-7.2396,-7.2415,-7.2483,-7.2507,-7.2211,-7.2211,-7.2211,0,-7.1216,-7.1353,-7.1359,-7.1462,-7.1513,-7.1485,-7.1598,-7.1645,-7.1739,-7.1775,-7.1734,-7.1921,-7.1965,-7.2123,-7.217,-7.2208,-7.2238,-7.2185,-7.2393,-7.2412,-7.243,-7.2494,-7.252,-7.2217,-7.2216,-7.2215,-7.2215,0,-7.1439,-7.1536,-7.1617,-7.171,-7.1771,-7.1878,-7.19,-7.1962,-7.1957,-7.198,-7.2113,-7.2165,-7.2257,-7.2296,-7.2291,-7.2454,-7.2429,-7.2391,-7.2316,-7.2462,-7.2522,-7.2547,-7.2225,-7.2223,-7.2221,-7.222,0,0,-7.1647,-7.1746,-7.1775,-7.1818,-7.1897,-7.1971,-7.2078,-7.217,-7.2222,-7.229,-7.2379,-7.2507,-7.2473,-7.2524,-7.2526,-7.2601,-7.2749,-7.2553,-7.2555,-7.2586,-7.2931,-7.2957,-7.2986,-7.2734,-7.2738,-7.2742,-7.2925,0,-7.182,-7.2008,-7.2018,-7.2188,-7.2277,-7.2254,-7.2348,-7.2407,-7.2432,-7.2512,-7.254,-7.2631,-7.2579,-7.261,-7.2683,-7.2715,-7.2817,-7.2702,-7.2816,-7.282,-7.2797,-7.3017,-7.3045,-7.3214,-7.2948,-7.2952,-7.2955,0,-7.2045,-7.2121,-7.2301,-7.2369,-7.2407,-7.249,-7.2576,-7.2653,-7.272,-7.2734,-7.2793,-7.2785,-7.2896,-7.282,-7.2972,-7.2894,-7.2942,-7.2965,-7.2972,-7.298,-7.2894,-7.303,-7.3269,-7.3293,-7.2993,-7.299,-7.2987,0,-7.2178,-7.2325,-7.2452,-7.2489,-7.2572,-7.2632,-7.2669,-7.2732,-7.2787,-7.2863,-7.2899,-7.2986,-7.3034,-7.3102,-7.3118,-7.3062,-7.327,-7.3196,-7.3284,-7.3284,-7.3326,-7.3322,-7.3573,-7.3361,-7.3361,-7.336,-7.336,0,-7.2368,-7.2478,-7.2512,-7.259,-7.2714,-7.2726,-7.2848,-7.2881,-7.2938,-7.3022,-7.3009,-7.3088,-7.3106,-7.3189,-7.3203,-7.3327,-7.3349,-7.3362,-7.3364,-7.3362,-7.336,-7.3391,-7.3379,-7.3367,-7.3365,-7.3364,-7.3363,0,-7.2534,-7.2562,-7.2698,-7.2768,-7.2788,-7.2876,-7.2935,-7.301,-7.3035,-7.3142,-7.3168,-7.3208,-7.3306,-7.333,-7.3446,-7.3455,-7.3601,-7.3593,-7.3578,-7.3577,-7.3663,-7.3654,-7.3941,-7.3979,-7.3743,-7.3746,-7.3748,0,-7.2652,-7.2737,-7.2816,-7.2872,-7.2912,-7.3003,-7.3059,-7.3076,-7.3136,-7.3221,-7.3286,-7.3382,-7.3459,-7.3617,-7.3656,-7.3745,-7.3738,-7.3832,-7.3751,-7.3747,-7.3737,-7.3731,-7.374,-7.3847,-7.3849,-7.3851,-7.3853,0,-7.2859,-7.2869,-7.2952,-7.3041,-7.311,-7.318,-7.3247,-7.3294,-7.332,-7.3388,-7.3488,-7.3549,-7.3669,-7.3765,-7.3855,-7.3894,-7.3878,-7.3879,-7.3904,-7.3901,-7.3889,-7.3895,-7.3618,-7.3871,-7.3869,-7.3868,-7.3867,-7.3866,-7.3004,-7.3078,-7.3146,-7.324,-7.3293,-7.3357,-7.3431,-7.3467,-7.3551,-7.365,-7.3656,-7.3765,-7.3832,-7.3952,-7.3997,-7.4083,-7.4054,-7.409,-7.4099,-7.4107,-7.4114,-7.3878,-7.4099,-7.4099,-7.4098,-7.4098,-7.4098,0,-7.3208,-7.3252,-7.3338,-7.3433,-7.3507,-7.3489,-7.3563,-7.3626,-7.3722,-7.3787,-7.3865,-7.3981,-7.4075,-7.4123,-7.4216,-7.4276,-7.4271,-7.4299,-7.4294,-7.4303,-7.4135,-7.4103,-7.4302,-7.4302,-7.4302,-7.4302,-7.4302,-7.4302,-7.3323,-7.3448,-7.3468,-7.362,-7.3663,-7.377,-7.3814,-7.3874,-7.3925,-7.4056,-7.4134,-7.4166,-7.4225,-7.4323,-7.4408,-7.442,-7.4454,-7.4487,-7.4495,-7.4336,-7.4315,-7.4295,-7.4265,-7.4494,-7.4495,-7.4655,-7.4657,-7.4658]},{"header":{"parameterUnit":"m.s-1","parameterCategory":1,"la1":30.2991,"la2":30.254,"lo1":-89.0895,"lo2":-89.0444,"dy":0.0017,"dx":0.0017,"nx":28,"ny":28,"refTime":"2023-10-23T09:00:00:Z","depth":0,"parameterNumber":3,"parameterNumberName":"V-component_of_WINDS"},"data":[0,0,0,0,0,0,0,0,0,0,0,0,0,0,0,0,0,0,0,0,0,0,0,0,0,0,0,0,0,0,0,0,0,0,0,0,0,0,0,0,0,0,0,0,0,0,0,0,0,0,0,0,0,0,0,0,0,0,2.5057,2.5058,0,2.5155,2.5156,2.5157,2.5182,2.5182,2.5181,2.518,2.5282,2.5285,2.5288,0,0,0,0,0,0,0,0,0,0,0,0,0,2.4898,2.49,2.5057,2.5058,2.506,2.5154,2.5156,2.5157,2.5182,2.5182,2.5181,2.518,2.5281,2.5285,2.5289,0,0,0,0,0,0,0,0,0,0,0,0,0,2.4978,2.4901,2.5057,2.5084,2.5087,2.5154,2.5156,2.5157,2.5182,2.5182,2.5181,2.518,2.528,2.5284,2.5289,2.5337,0,0,2.5304,2.5306,0,0,0,0,0,0,0,0,2.4974,2.4984,2.5078,2.5082,2.5086,2.5155,2.5137,2.5218,2.5183,2.5146,2.518,2.5179,2.5241,2.5249,2.5269,2.5342,2.5347,2.5305,2.5308,2.531,2.5311,0,0,0,0,0,0,0,2.4968,2.498,2.5096,2.508,2.5084,2.5092,2.5103,2.5152,2.5197,2.5149,2.5151,2.5163,2.5243,2.5264,2.5272,2.5348,2.5304,2.5309,2.5312,2.5314,2.547,2.5471,0,0,0,0,0,0,2.4957,2.4975,2.5093,2.5099,2.5026,2.5096,2.5107,2.5134,2.5197,2.5206,2.5163,2.5163,2.5256,2.5266,2.5275,2.5338,2.531,2.5314,2.5317,2.5469,2.5471,2.5472,0,0,0,0,0,0,2.4954,2.4968,2.5089,2.5038,2.5054,2.5099,2.5129,2.5136,2.5158,2.5207,2.5216,2.5177,2.5256,2.5268,2.5323,2.5342,2.5316,2.5321,2.5468,2.5469,2.5471,2.5463,0,0,0,0,0,0,2.4949,2.4966,2.4984,2.5038,2.5056,2.5133,2.513,2.5139,2.5166,2.5167,2.5222,2.5231,2.5256,2.5315,2.5328,2.5348,2.5325,2.5466,2.5468,2.5471,2.5462,2.5465,2.5467,0,0,0,0,0,2.4943,2.4977,2.4984,2.4998,2.5079,2.5134,2.5145,2.5173,2.5167,2.5187,2.5219,2.5229,2.5338,2.5321,2.5335,2.5357,2.5465,2.5468,2.547,2.5461,2.5464,2.5467,0,0,0,0,0,0,2.4924,2.4984,2.4993,2.5045,2.5084,2.5138,2.5162,2.5175,2.5217,2.5216,2.525,2.5262,2.5315,2.5342,2.5321,2.541,2.5402,2.5408,2.539,2.5393,2.5396,2.5388,2.5329,0,0,0,0,0,2.4925,2.4964,2.5016,2.5057,2.5076,2.5116,2.5141,2.516,2.5202,2.5218,2.5255,2.5296,2.534,2.5368,2.5411,2.5466,2.548,2.5489,2.5492,2.5493,2.5498,2.5533,2.5538,2.5481,2.5481,2.5481,0,0,2.4929,2.4967,2.4989,2.5054,2.5086,2.5127,2.5129,2.5172,2.5203,2.5225,2.5279,2.5307,2.5356,2.5412,2.5438,2.5436,2.5517,2.5497,2.5498,2.5502,2.5536,2.5541,2.5546,2.5483,2.5482,2.5482,0,0,2.4957,2.4989,2.5028,2.5061,2.5111,2.5138,2.5147,2.52,2.522,2.5275,2.5293,2.5332,2.5406,2.5441,2.5468,2.5514,2.5526,2.5527,2.554,2.5573,2.5578,2.5582,2.56,2.5606,2.5532,2.5532,2.5532,0,2.4956,2.5017,2.5047,2.5089,2.5118,2.5141,2.5182,2.5213,2.5274,2.5294,2.5291,2.5387,2.5421,2.5487,2.5498,2.5519,2.5533,2.5521,2.5574,2.5579,2.5583,2.5601,2.5608,2.5532,2.5532,2.5532,2.5532,0,2.5014,2.5057,2.5083,2.5142,2.5174,2.5215,2.5253,2.5283,2.53,2.5328,2.5385,2.5428,2.5481,2.5498,2.5514,2.5567,2.5565,2.5567,2.556,2.5588,2.5606,2.5613,2.5531,2.5531,2.5531,2.5532,0,0,2.5031,2.5108,2.5117,2.5145,2.5203,2.5238,2.5282,2.5334,2.536,2.5402,2.5442,2.5506,2.551,2.5541,2.5562,2.5591,2.5628,2.5591,2.5593,2.5598,2.5692,2.5691,2.5698,2.5637,2.5638,2.5639,2.5689,0,2.5067,2.5145,2.5175,2.524,2.5282,2.5305,2.5344,2.5385,2.5414,2.5455,2.5486,2.5532,2.5533,2.5552,2.5582,2.5617,2.5648,2.5614,2.5676,2.5677,2.5663,2.5707,2.5704,2.5749,2.5696,2.5697,2.5698,0,2.5119,2.5163,2.5232,2.5288,2.5307,2.5341,2.5393,2.5431,2.5479,2.5499,2.5535,2.5555,2.5605,2.5596,2.5666,2.5643,2.567,2.5692,2.5694,2.5701,2.5689,2.5716,2.5764,2.5771,2.5709,2.5708,2.5707,0,2.5126,2.5203,2.5255,2.5278,2.5344,2.5368,2.5397,2.5445,2.5475,2.5522,2.5543,2.5594,2.5623,2.5663,2.5698,2.5687,2.5766,2.5759,2.5785,2.5785,2.5801,2.5799,2.5854,2.5817,2.5817,2.5816,2.5816,0,2.5164,2.5206,2.5259,2.5291,2.534,2.5375,2.5423,2.5454,2.5496,2.5537,2.5561,2.5598,2.5641,2.5685,2.5713,2.5769,2.5781,2.5799,2.5806,2.5798,2.5795,2.5816,2.5814,2.5818,2.5818,2.5818,2.5817,0,2.518,2.5217,2.5276,2.5334,2.535,2.5384,2.5435,2.5468,2.5499,2.555,2.5564,2.5612,2.5666,2.5705,2.5773,2.5792,2.5853,2.5859,2.5836,2.584,2.5864,2.5862,2.5935,2.5948,2.5901,2.5901,2.5901,0,2.5202,2.5235,2.5298,2.5326,2.5355,2.54,2.5433,2.547,2.5502,2.5562,2.5589,2.5644,2.569,2.5774,2.5817,2.5871,2.5879,2.5901,2.5887,2.5879,2.5882,2.588,2.5885,2.5903,2.5904,2.5904,2.5904,0,2.5238,2.5255,2.53,2.5352,2.539,2.5433,2.5476,2.5499,2.5544,2.558,2.5635,2.5671,2.5742,2.5797,2.5856,2.5888,2.5905,2.5908,2.5918,2.5909,2.5895,2.5905,2.5843,2.5906,2.5906,2.5906,2.5906,2.5906,2.5259,2.529,2.534,2.539,2.5427,2.5468,2.5503,2.5539,2.5585,2.5646,2.5665,2.5723,2.5774,2.5855,2.5888,2.5935,2.5934,2.5947,2.595,2.5953,2.5954,2.5887,2.5945,2.5945,2.5945,2.5945,2.5945,0,2.5297,2.5331,2.5377,2.5437,2.5478,2.549,2.554,2.5573,2.5623,2.5669,2.5715,2.5779,2.5834,2.5882,2.5939,2.5968,2.5978,2.5982,2.5981,2.5989,2.595,2.5937,2.5974,2.5974,2.5974,2.5974,2.5974,2.5974,2.5322,2.5377,2.5401,2.5476,2.551,2.5566,2.5594,2.5633,2.567,2.5741,2.5787,2.5818,2.5866,2.5928,2.5979,2.5992,2.6013,2.6016,2.6031,2.5994,2.5991,2.5988,2.5976,2.602,2.602,2.6066,2.6067,2.6067]}]]